Location: Olmeneta
(45.2333°N, 10.0167°E)
Time: 06:16:41
(UTC+00:00)

Cosmos 2218 Rocket - Pass Details

Date: 03 March 2021
Orbit: 955 x 1007 km, 82.9° (Epoch: 10 April)

Event Time Altitude Azimuth Distance (km) Brightness Sun altitude
Rises 18:47:03 0° 174° (S) 3,719 6.9 -17.8°
Reaches altitude 10° 18:49:36 10° 170° (S) 2,775 6.2 -18.3°
Maximum altitude 18:55:51 60° 93° (E) 1,144 4.0 -19.4°
Drops below altitude 10° 19:02:08 10° 15° (NNE) 2,787 6.4 -20.4°
Sets 19:04:42 0° 12° (NNE) 3,737 7.1 -20.9°
